Volver al catálogo

STARLINK-37595

ActivoComunicacionesVLEO
NORAD 69847·PAYLOAD·🇺🇸 United States

Lanzado Jul 5, 2026 desde Cape Canaveral Space Force Station

Loading…

Próximos Pases (próximas 24 horas)

TLE

ActualizadoSource: CelesTrak SupGP

Época: Sep 15, 2026, 03:50 UTC

1 69847C 26154AE  26258.16020833  .00074945  00000+0  22138-2 0  2582
2 69847  53.1601 356.8780 0001173  88.5730 336.0527 15.34360025    18

Sigue STARLINK-37595 en tiempo real con AllMySat

Download on the App Store